SES-8

Last updated on Wed Mar 11 2026 00:02:53 GMT+0000 (Coordinated Universal Time)

1 39460U 13071A 26069.54908772 -.00000267 00000+0 00000+0 0 9993 2 39460 0.0471 269.3162 0001949 118.8494 72.7078 1.00270464 43443
UTC large
Height (km)
Speed (km/s)
/
Latitude / Longitude
Inclination (degrees)
Orbital Period (minutes)
Azimuth
Elevation
Range (km)
Doppler Factor

Next 0 passes for location: London (51.5072 / 0.1276)

Sorry there are no passes over London.